Weather History for LHPA - December, 2012

Change the Weather History Date:

Thursday, December 20, 2012

  Actual Average Record
Temperature  
Mean Temperature 32 °F -  
Max Temperature 37 °F - - ()
Min Temperature 26 °F - - ()
Degree Days  
Heating Degree Days 34    
Moisture  
Dew Point 32 °F    
Average Humidity 96    
Maximum Humidity 100    
Minimum Humidity 81    
Precipitation  
Precipitation 0.00 in - - ()
Sea Level Pressure  
Sea Level Pressure 30.13 in    
Wind  
Wind Speed 5 mph ()    
Max Wind Speed 11 mph    
Max Gust Speed -    
Visibility 2.4 miles    
Events Fog    
T = Trace of Precipitation, MM = Missing Value Source: Averaged Metar Reports

Daily Weather History Graph

Daily Weather History Graph

Search for Another Location

Airport or City:

Trip Planner

Search our weather history database for the weather conditions in past years. The results will help you decide how hot, cold, wet, or windy it might be!

Date:

Astronomy

Dec. 20, 2012 Rise Set
Actual Time 7:33 AM CET 4:01 PM CET
Civil Twilight 6:58 AM CET 4:37 PM CET
Nautical Twilight 6:18 AM CET 5:16 PM CET
Astronomical Twilight 5:41 AM CET 5:54 PM CET
Moon 11:32 AM CET (12/20) No Moon Set
Length of Visible Light 9h 39m
Length of Day
8h 27m
First Quarter, 52% of the Moon is Illuminated
Dec 20
First Quarter
Dec 28
Full
Jan 5
Last Quarter
Jan 11
New
Jan 19
First Quarter

Hourly Weather History & Observations

Time (CET) Temp. Windchill Dew Point Humidity Pressure Visibility Wind Dir Wind Speed Gust Speed Precip Events Conditions
12:15 AM 37.4 °F 29.9 °F 37.4 °F 100% 30.18 in 3.1 mi NNW 11.2 mph - N/A   Mostly Cloudy
12:45 AM 37.4 °F 30.9 °F 37.4 °F 100% 30.18 in 3.7 mi NW 8.9 mph - N/A   Mostly Cloudy
1:15 AM 37.4 °F 29.9 °F 37.4 °F 100% 30.18 in 3.7 mi NNW 11.2 mph - N/A   Mostly Cloudy
1:45 AM 37.4 °F 30.9 °F 37.4 °F 100% 30.18 in 3.7 mi NNW 8.9 mph - N/A   Mostly Cloudy
2:11 AM 35.6 °F 28.7 °F 35.6 °F 100% 30.18 in 3.1 mi NNW 8.9 mph - N/A   Mostly Cloudy
2:15 AM 37.4 °F 30.9 °F 37.4 °F 100% 30.18 in 3.1 mi NNW 8.9 mph - N/A   Mostly Cloudy
2:45 AM 35.6 °F 30.0 °F 35.6 °F 100% 30.18 in 2.5 mi NNW 6.7 mph - N/A   Mostly Cloudy
3:07 AM 33.8 °F 29.7 °F 33.8 °F 100% 30.18 in 1.9 mi North 4.5 mph - N/A   Mostly Cloudy
3:15 AM 33.8 °F 29.7 °F 33.8 °F 100% 30.18 in 1.9 mi North 4.5 mph - N/A   Mostly Cloudy
3:45 AM 33.8 °F 29.7 °F 33.8 °F 100% 30.15 in 1.9 mi North 4.5 mph - N/A   Mostly Cloudy
4:15 AM 33.8 °F - 33.8 °F 100% 30.18 in 1.9 mi NNW 2.2 mph - N/A   Mostly Cloudy
4:45 AM 33.8 °F - 33.8 °F 100% 30.18 in 1.9 mi NNW 2.2 mph - N/A   Mostly Cloudy
5:15 AM 33.8 °F 29.7 °F 33.8 °F 100% 30.15 in 1.6 mi NNW 4.5 mph - N/A   Mostly Cloudy
5:45 AM - - - N/A% - 1.9 mi NNW 4.5 mph - N/A   Mostly Cloudy
6:15 AM 32.0 °F - 32.0 °F 100% 30.18 in 1.2 mi NE 2.2 mph - N/A   Scattered Clouds
6:22 AM 32.0 °F - 32.0 °F 100% 30.18 in 0.9 mi ENE 2.2 mph - N/A   Scattered Clouds
6:45 AM 32.0 °F - 32.0 °F 100% 30.15 in 0.6 mi NNE 2.2 mph - N/A   Mostly Cloudy
6:59 AM 30.2 °F - 30.2 °F 100% 30.18 in 0.6 mi Calm Calm - N/A Fog Mostly Cloudy
7:45 AM 32.0 °F - 32.0 °F 100% 30.15 in 0.6 mi Calm Calm - N/A Fog Mostly Cloudy
8:15 AM 32.0 °F - 32.0 °F 100% 30.15 in 0.6 mi Calm Calm - N/A Fog Mostly Cloudy
8:25 AM 32.0 °F - 32.0 °F 100% 30.18 in 0.9 mi Calm Calm - N/A Fog Mostly Cloudy
8:45 AM - - - N/A% - 1.9 mi Variable 4.5 mph - N/A   Mostly Cloudy
9:15 AM 33.8 °F - 33.8 °F 100% 30.15 in 1.6 mi WNW 2.2 mph - N/A   Mostly Cloudy
9:27 AM 33.8 °F - 33.8 °F 100% 30.18 in 1.9 mi NW 2.2 mph - N/A   Mostly Cloudy
9:45 AM 33.8 °F - 32.0 °F 93% 30.18 in 2.5 mi NW 2.2 mph - N/A   Mostly Cloudy
10:15 AM 33.8 °F 29.7 °F 33.8 °F 100% 30.18 in 2.5 mi NW 4.5 mph - N/A   Mostly Cloudy
10:45 AM 35.6 °F 31.8 °F 32.0 °F 87% 30.15 in 2.5 mi NW 4.5 mph - N/A   Mostly Cloudy
10:53 AM 35.6 °F 30.0 °F 32.0 °F 87% 30.15 in 3.1 mi NNW 6.7 mph - N/A   Mostly Cloudy
11:15 AM 35.6 °F 30.0 °F 32.0 °F 87% 30.15 in 3.7 mi NNW 6.7 mph - N/A   Mostly Cloudy
11:45 AM - - - N/A% - 3.7 mi Variable 4.5 mph - N/A   Overcast
12:15 PM 37.4 °F - 32.0 °F 81% 30.12 in 5.0 mi NNE 2.2 mph - N/A   Scattered Clouds
12:45 PM 37.4 °F - 32.0 °F 81% 30.12 in 5.0 mi North 2.2 mph - N/A   Scattered Clouds
1:15 PM 37.4 °F - 32.0 °F 81% 30.12 in 5.0 mi NE 2.2 mph - N/A   Scattered Clouds
1:45 PM 35.6 °F - 32.0 °F 87% 30.12 in 4.3 mi North 2.2 mph - N/A   Scattered Clouds
2:15 PM 37.4 °F - 32.0 °F 81% 30.09 in 5.0 mi North 2.2 mph - N/A   Scattered Clouds
2:45 PM - - - N/A% - 3.7 mi Variable 4.5 mph - N/A   Overcast
3:15 PM 35.6 °F - 30.2 °F 81% 30.09 in 5.0 mi Calm Calm - N/A   Partly Cloudy
3:45 PM 35.6 °F - 30.2 °F 81% 30.09 in 5.0 mi East 2.2 mph - N/A   Unknown
4:15 PM 32.0 °F - 30.2 °F 93% 30.09 in 3.7 mi Calm Calm - N/A   Unknown
4:26 PM 33.8 °F - 30.2 °F 87% 30.09 in 3.1 mi Calm Calm - N/A   Partly Cloudy
4:45 PM 30.2 °F - 30.2 °F 100% 30.09 in 3.1 mi East 2.2 mph - N/A   Scattered Clouds
5:15 PM - - - N/A% 30.06 in 2.5 mi SSE 2.2 mph - N/A   Partly Cloudy
5:32 PM 28.4 °F - 28.4 °F 100% 30.06 in 1.2 mi SSE 2.2 mph - N/A   Partly Cloudy
5:45 PM - - - N/A% - 0.9 mi Variable 4.5 mph - N/A Fog Fog
6:15 PM 28.4 °F - 28.4 °F 100% 30.06 in 1.1 mi SSE 2.2 mph - N/A   Partly Cloudy
6:45 PM - - - N/A% 30.06 in 1.1 mi SSE 2.2 mph - N/A   Partly Cloudy
7:15 PM 28.4 °F 23.4 °F 28.4 °F 100% 30.06 in 1.1 mi SE 4.5 mph - N/A   Partly Cloudy
7:45 PM 28.4 °F 23.4 °F 28.4 °F 100% 30.06 in 0.9 mi SE 4.5 mph - N/A   Partly Cloudy
8:15 PM 28.4 °F 23.4 °F 28.4 °F 100% 30.06 in 0.9 mi SSE 4.5 mph - N/A   Clear
8:45 PM - - - N/A% - 0.9 mi Variable 4.5 mph - N/A Fog Fog
9:15 PM 26.6 °F 21.3 °F 26.6 °F 100% 30.04 in 1.2 mi SE 4.5 mph - N/A   Scattered Clouds
9:45 PM 26.6 °F 21.3 °F 26.6 °F 100% 30.04 in 1.2 mi SSE 4.5 mph - N/A   Scattered Clouds
10:15 PM 28.4 °F 21.4 °F 28.4 °F 100% 30.04 in 1.6 mi SSE 6.7 mph - N/A   Partly Cloudy
10:45 PM 26.6 °F 19.2 °F 26.6 °F 100% 30.04 in 1.6 mi SSE 6.7 mph - N/A   Partly Cloudy
11:15 PM 26.6 °F 21.3 °F 26.6 °F 100% 30.04 in 1.6 mi SSE 4.5 mph - N/A   Scattered Clouds
11:45 PM - - - N/A% - 1.9 mi North - - N/A   Overcast